Overview Statistics Trail Chart Weather Telemetry Raw packets
 

This is the latest recevied weather packets stored in our database for station/object SV7GBF-2. If no packets are shown the sender has not sent any weather packets the latest 10 day(s).

<< 11 12 13 14 15 16 17 >>
Time Temp. Humidity Pressure Rain* Wind** Luminosity Snow
1788419646 25° C 62% 1015 hPa - - - -
1788419045 25° C 61% 1015 hPa - - - -
1788418445 25° C 62% 1015 hPa - - - -
1788417845 25° C 63% 1015 hPa - - - -
1788416645 25° C 63% 1015 hPa - - - -
1788415446 25° C 78% 1015 hPa - - - -
1788414845 24.44° C 79% 1015 hPa - - - -
1788414245 23.89° C 80% 1015 hPa - - - -
1788413645 23.89° C 79% 1015 hPa - - - -
1788413045 23.89° C 79% 1015 hPa - - - -
1788412445 23.89° C 79% 1015 hPa - - - -
1788411845 23.33° C 80% 1016 hPa - - - -
1788411245 23.33° C 80% 1015 hPa - - - -
1788410045 23.33° C 80% 1016 hPa - - - -
1788409445 22.78° C 79% 1015 hPa - - - -
1788408245 22.78° C 76% 1015 hPa - - - -
1788407645 23.33° C 76% 1015 hPa - - - -
1788407045 23.33° C 76% 1015 hPa - - - -
1788406445 23.33° C 76% 1015 hPa - - - -
1788405246 23.33° C 73% 1015 hPa - - - -
1788402245 23.89° C 65% 1014 hPa - - - -
1788401045 23.33° C 76% 1015 hPa - - - -
1788400445 23.33° C 75% 1016 hPa - - - -
1788399845 23.33° C 74% 1016 hPa - - - -
1788399245 23.33° C 72% 1017 hPa - - - -

* Rain since midnight (hover to see other rain measurements)
** Current wind speed in m/s (hover to see current wind gust speed)